{"data":{"norad_id":67323,"epoch":"2026-05-25T00:39:44.251200Z","epoch_age_seconds":66550,"freshness":"FRESH","line1":"1 67323U 26002U   26145.02759550  .00010015  00000+0  37297-3 0  9999","line2":"2 67323  43.0014 254.1595 0000571 267.9712  92.1074 15.27579884 22815","mean_motion":15.27579884,"eccentricity":5.71e-5,"inclination_deg":43.0014,"raan_deg":254.1595,"arg_perigee_deg":267.9712,"mean_anomaly_deg":92.1074,"bstar":0.00037297,"rev_number":2281,"period_min":94.266755871996,"perigee_km":482.65766963949,"apogee_km":483.44121713132,"semimajor_km":6861.1864433854,"source":"CELESTRAK","updated_at":"2026-05-25T13:38:21.518742Z"}}